Location: Casilda
(33.0440°S, 61.1680°W)
Time: 00:55:16
(UTC-03:00)

ISS - Pass Details

Date: 26 March 2020
Orbit: 417 x 423 km, 51.6° (Epoch: 29 March)

Event Time Altitude Azimuth Distance (km) Brightness Sun altitude
Exits shadow 05:42:30 54° 207° (SSW) 529 -3.5 -19.6°
Drops below altitude 10° 05:45:43 10° 143° (SE) 1,534 -0.3 -19.0°
Sets 05:47:53 0° 138° (SE) 2,406 0.9 -18.5°
